Location: Newark
(40.9833°N, 0.0333°W)
Time: 16:26:57
(UTC+00:00)

Courier 1B Rocket - Visible Passes

Search period start: 21 October 2020 00:00
Search period end: 31 October 2020 00:00
Orbit: 920 x 1202 km, 28.2° (Epoch: 20 October)

Date Brightness Start Highest point End Pass type
(mag) Time Alt. Az. Time Alt. Az. Time Alt. Az.
22 Oct 7.2 19:53:42 10° SSW 19:55:26 14° S 19:55:26 14° S visible
23 Oct 7.0 18:54:19 10° S 18:57:45 14° SSE 18:58:18 14° SSE visible
23 Oct 7.6 20:44:14 10° SW 20:44:40 11° SW 20:44:40 11° SW visible
24 Oct 6.8 19:43:53 10° SSW 19:47:29 21° S 19:47:29 21° S visible
25 Oct 6.8 18:43:56 10° SSW 18:48:31 18° SSE 18:50:15 17° SE visible
25 Oct 7.3 20:34:57 10° SW 20:36:37 16° SW 20:36:37 16° SW visible
26 Oct 7.1 17:44:42 10° S 17:47:44 13° SSE 17:50:51 10° SE visible
26 Oct 6.5 19:34:25 10° SW 19:39:22 26° S 19:39:22 26° S visible
27 Oct 6.7 18:34:10 10° SSW 18:39:21 22° SSE 18:42:05 18° SE visible
27 Oct 7.0 20:25:51 10° SW 20:28:27 20° SW 20:28:27 20° SW visible
28 Oct 7.0 17:34:18 10° SSW 17:38:32 17° SSE 17:42:57 10° ESE visible
28 Oct 6.4 19:25:12 10° SW 19:31:07 28° S 19:31:09 28° S visible
29 Oct 6.5 18:24:45 10° SW 18:30:14 25° SSE 18:33:50 17° SE visible
29 Oct 6.9 20:16:55 10° WSW 20:20:12 23° SW 20:20:12 23° SW visible
30 Oct 6.8 17:24:34 10° SSW 17:29:24 21° SSE 17:34:28 10° ESE visible
30 Oct 6.3 19:16:09 10° SW 19:22:03 29° S 19:22:52 29° SSE visible
30 Oct 7.7 21:09:07 10° WSW 21:09:14 10° WSW 21:09:14 10° WSW visible
